Lakenheath RAF, United Kingdom

9:06 AM BST on July 28, 2017 (GMT +0100)
Lakenheath Air Base

Weather History for EGUL - April, 2013

Change the Weather History Date:

Sunday, April 21, 2013

  Actual Average Record
Temperature  
Mean Temperature 42 °F -  
Max Temperature 57 °F - - ()
Min Temperature 28 °F - - ()
Degree Days  
Heating Degree Days 23    
Moisture  
Dew Point 33 °F    
Average Humidity 82    
Maximum Humidity 100    
Minimum Humidity 37    
Precipitation  
Precipitation 0.00 in - - ()
Sea Level Pressure  
Sea Level Pressure 30.19 in    
Wind  
Wind Speed 4 mph ()    
Max Wind Speed 17 mph    
Max Gust Speed -    
Visibility 4.2 miles    
Events Fog    
T = Trace of Precipitation, MM = Missing Value Source: Averaged Metar Reports

Daily Weather History Graph

Daily Weather History Graph

Search for Another Location

Airport or City:

Trip Planner

Search our weather history database for the weather conditions in past years. The results will help you decide how hot, cold, wet, or windy it might be!

Date:

Astronomy

Apr. 21, 2013 Rise Set
Actual Time 5:46 AM BST 8:06 PM BST
Civil Twilight 5:09 AM BST 8:44 PM BST
Nautical Twilight 4:22 AM BST 9:31 PM BST
Astronomical Twilight 3:27 AM BST 10:28 PM BST
Moon 3:03 PM BST (4/21) 3:37 AM BST (4/21)
Length of Visible Light 15h 34m
Length of Day
14h 19m
Waxing Gibbous, 78% of the Moon is Illuminated
Apr 21
Waxing Gibbous
Apr 25
Full
May 2
Last Quarter
May 10
New
May 18
First Quarter

Hourly Weather History & Observations

Time (BST) Temp. Windchill Dew Point Humidity Pressure Visibility Wind Dir Wind Speed Gust Speed Precip Events Conditions
12:58 AM 33.4 °F - 26.8 °F 77% 30.35 in 6.2 mi Calm Calm - N/A   Clear
1:58 AM 30.6 °F - 26.4 °F 85% 30.33 in 6.2 mi ESE 2.3 mph - N/A   Clear
2:58 AM 29.1 °F - 25.2 °F 85% 30.31 in 6.2 mi East 1.2 mph - N/A   Clear
3:58 AM 29.1 °F - 26.8 °F 91% 30.28 in 6.2 mi East 2.3 mph - N/A   Clear
4:58 AM 28.4 °F - 26.2 °F 92% 30.26 in 6.2 mi ESE 2.3 mph - N/A   Clear
5:39 AM 28.4 °F - 24.8 °F 86% 30.25 in 6.2 mi Calm Calm - N/A   Partly Cloudy
5:55 AM 28.4 °F - 24.8 °F 86% 30.25 in 6.2 mi Calm Calm - N/A   Mostly Cloudy
5:58 AM 28.0 °F - 25.5 °F 90% 30.26 in 6.2 mi East 1.2 mph - N/A   Mostly Cloudy
6:03 AM 28.4 °F - 24.8 °F 86% 30.25 in 6.2 mi East 2.3 mph - N/A   Mostly Cloudy
6:41 AM 30.2 °F - 28.4 °F 93% 30.24 in 6.2 mi ENE 1.2 mph - N/A   Overcast
6:58 AM 31.1 °F - 28.8 °F 91% 30.26 in 6.2 mi Calm Calm - N/A   Overcast
7:03 AM 32.0 °F - 30.2 °F 93% 30.25 in 6.2 mi Calm Calm - N/A   Overcast
7:14 AM 32.0 °F 28.7 °F 32.0 °F 100% 30.24 in 6.2 mi SSE 3.5 mph - N/A   Overcast
7:24 AM 33.8 °F 30.8 °F 32.0 °F 93% 30.24 in 6.2 mi South 3.5 mph - N/A   Overcast
7:38 AM 35.6 °F 30.7 °F 33.8 °F 93% 30.24 in - South 5.8 mph - N/A   Overcast
7:39 AM 35.6 °F 29.9 °F 33.8 °F 93% 30.24 in 1.7 mi South 6.9 mph - N/A   Overcast
7:40 AM 35.6 °F 29.9 °F 33.8 °F 93% 30.24 in 1.5 mi South 6.9 mph - N/A   Overcast
7:41 AM 35.6 °F 29.9 °F 33.8 °F 93% 30.24 in 1.2 mi South 6.9 mph - N/A   Overcast
7:43 AM 35.6 °F 30.7 °F 35.6 °F 100% 30.23 in 1.0 mi South 5.8 mph - N/A   Overcast
7:45 AM 35.6 °F 31.7 °F 35.6 °F 100% 30.23 in 0.7 mi South 4.6 mph - N/A   Overcast
7:47 AM 35.6 °F 29.9 °F 35.6 °F 100% 30.23 in 0.7 mi South 6.9 mph - N/A   Overcast
7:49 AM 35.6 °F 30.7 °F 35.6 °F 100% 30.23 in 0.5 mi South 5.8 mph - N/A Fog Fog
7:56 AM 37.4 °F 32.8 °F 35.6 °F 93% 30.23 in 0.5 mi South 5.8 mph - N/A Fog Fog
7:58 AM 36.5 °F 31.0 °F 35.6 °F 97% 30.24 in 0.5 mi South 6.9 mph - N/A Fog Fog
8:02 AM 37.4 °F 32.8 °F 35.6 °F 93% 30.23 in 0.5 mi SSE 5.8 mph - N/A Fog Fog
8:07 AM 37.4 °F 32.8 °F 35.6 °F 93% 30.23 in 0.7 mi South 5.8 mph - N/A   Mist
8:08 AM 37.4 °F 33.8 °F 35.6 °F 93% 30.23 in 0.7 mi South 4.6 mph - N/A   Mist
8:10 AM 37.4 °F 32.8 °F 35.6 °F 93% 30.23 in 0.7 mi South 5.8 mph - N/A   Mist
8:11 AM 37.4 °F 32.8 °F 35.6 °F 93% 30.23 in 1.0 mi South 5.8 mph - N/A   Mist
8:12 AM 37.4 °F 32.8 °F 35.6 °F 93% 30.23 in 1.2 mi South 5.8 mph - N/A   Overcast
8:14 AM 37.4 °F 32.8 °F 37.4 °F 100% 30.23 in 1.5 mi South 5.8 mph - N/A   Overcast
8:15 AM 37.4 °F 33.8 °F 37.4 °F 100% 30.23 in 1.7 mi South 4.6 mph - N/A   Overcast
8:16 AM 37.4 °F 33.8 °F 37.4 °F 100% 30.23 in - South 4.6 mph - N/A   Overcast
8:17 AM 37.4 °F 32.8 °F 37.4 °F 100% 30.23 in 2.5 mi South 5.8 mph - N/A   Overcast
8:19 AM 37.4 °F 32.8 °F 37.4 °F 100% 30.22 in 3.1 mi South 5.8 mph - N/A   Overcast
8:51 AM 39.2 °F 35.9 °F 39.2 °F 100% 30.20 in 6.2 mi SSE 4.6 mph - N/A   Scattered Clouds
8:58 AM 40.3 °F 37.1 °F 39.2 °F 96% 30.21 in 6.2 mi South 4.6 mph - N/A   Partly Cloudy
9:58 AM 46.6 °F - 35.6 °F 66% 30.19 in 6.2 mi SW 5.8 mph - N/A   Clear
11:58 AM 54.1 °F - 30.2 °F 40% 30.14 in 6.2 mi Variable 4.6 mph - N/A   Clear
12:58 PM 55.0 °F - 30.7 °F 40% 30.10 in 6.2 mi Variable 6.9 mph - N/A   Clear
1:58 PM 55.9 °F - 30.4 °F 38% 30.07 in 6.2 mi West 8.1 mph - N/A   Clear
2:58 PM 56.1 °F - 33.8 °F 43% 30.04 in 6.2 mi WSW 10.4 mph - N/A   Mostly Cloudy
3:58 PM 56.1 °F - 32.0 °F 40% 30.02 in 6.2 mi SW 8.1 mph - N/A   Mostly Cloudy
5:58 PM 55.4 °F - 29.5 °F 37% 30.00 in 6.2 mi West 17.3 mph - N/A   Mostly Cloudy
6:58 PM 54.1 °F - 30.2 °F 40% 30.00 in 6.2 mi WSW 10.4 mph - N/A   Overcast
7:58 PM 52.0 °F - 29.7 °F 42% 30.01 in 6.2 mi West 8.1 mph - N/A   Mostly Cloudy
8:58 PM 50.9 °F - 33.8 °F 52% 30.01 in 6.2 mi West 5.8 mph - N/A   Overcast
9:58 PM 48.9 °F - 36.0 °F 61% 30.01 in 6.2 mi WSW 6.9 mph - N/A   Mostly Cloudy
10:58 PM 47.1 °F - 36.5 °F 67% 30.01 in 6.2 mi SW 6.9 mph - N/A   Overcast
11:58 PM 46.9 °F - 37.8 °F 70% 30.00 in 6.2 mi SW 6.9 mph - N/A   Overcast